Home > Weather > Norfolk > Past weeks

Flag for Canada Past Weather in Norfolk, Ontario, Canada — Yesterday and Last 2 Weeks

Now
78 °F

Pleasantly warm.


Feels Like: 78 °F
Forecast: 57 / 83 °F
Wind: 3 mph from Southeast

Location: Delhi Cs Ont

Current Time: Jun 25, 2016 at 10:22:48 AM

Latest Report: Jun 25, 2016 at 10:00 AM


Visibility: N/A

Pressure: 30.17 "Hg

Humidity: 36%

Dew Point: 49 °F

Location of NorfolkLocation

Past Weather in Norfolk — Graph

°F

Norfolk Temperature Yesterday

Maximum temperature yesterday: 81 °F (at 5:00 PM)
Minimum temperature yesterday: 48 °F (at 6:00 AM)
Average temperature yesterday: 67 °F

High & Low Weather Summary for the Past Weeks

 TemperatureHumidityPressure
High90 °F (Jun 11, 5:00 PM)100% (Jun 15, 9:00 PM)30.28 "Hg (Jun 15, 9:00 PM)
Low43 °F (Jun 10, 6:00 AM)21% (Jun 18, 4:00 PM)29.68 "Hg (Jun 16, 3:00 PM)
Average67 °F56%29.97 "Hg
* Reported Jun 10 4:00 AM — Jun 25 4:00 AM, Norfolk, Weather by CustomWeather, © 2016

Note: Actual official high and low records may vary slightly from our data, if they occured in-between our weather recording intervals... More about our weather records

Advertising

Norfolk Weather History for the Previous 24 Hours

Scroll right to see more
 ConditionsComfort  
Time TempWeatherWind HumidityBarometerVisibility
4:00 AM
Sat, Jun 25
52 °FCool.No wind91%30.11 "HgN/A
3:00 AM52 °FCool.No wind90%30.12 "HgN/A
2:00 AM53 °FCool.No wind83%30.11 "HgN/A
1:00 AM55 °FCool.1 mph81%30.11 "HgN/A
12:00 AM56 °FCool.No wind78%30.10 "HgN/A
11:00 PM
Fri, Jun 24
62 °FCool.2 mph64%30.09 "HgN/A
10:00 PM66 °FMild.No wind55%30.08 "HgN/A
9:00 PM72 °FMild.1 mph40%30.06 "HgN/A
8:00 PM79 °FPleasantly warm.3 mph27%30.05 "HgN/A
7:00 PM80 °FPleasantly warm.3 mph27%30.05 "HgN/A
6:00 PM80 °FPleasantly warm.2 mph28%30.06 "HgN/A
5:00 PM81 °FPleasantly warm.6 mph26%30.06 "HgN/A
4:00 PM81 °FPleasantly warm.2 mph27%30.06 "HgN/A
3:00 PM79 °FPleasantly warm.6 mph29%30.06 "HgN/A
2:00 PM80 °FPleasantly warm.5 mph27%30.06 "HgN/A
1:00 PM80 °FPleasantly warm.5 mph28%30.06 "HgN/A
12:00 PM78 °FPleasantly warm.3 mph27%30.07 "HgN/A
11:00 AM77 °FPleasantly warm.3 mph32%30.07 "HgN/A
10:00 AM74 °FMild.3 mph38%30.07 "HgN/A
Weather by CustomWeather, © 2016

See weather overviewHow to use our weather pages